Terug naar catalogus

STARLINK-1992

ActiefCommunicatieVLEO
NORAD 47632·PAYLOAD·🇺🇸 United States

Gelanceerd Feb 16, 2021 vanaf Cape Canaveral Space Force Station

Loading…

Volgende Passages (komende 24 uur)

TLE

VersSource: CelesTrak SupGP

Epoch: Sep 15, 2026, 01:58 UTC

1 47632C 21012N   26258.08243056  .00002713  00000+0  87212-4 0  2583
2 47632  53.1572 171.3130 0001344  80.6635  30.3895 15.31713394    19

Volg STARLINK-1992 in realtime met AllMySat

Download on the App Store